Location: JKWMA (FRAC)
(33.1803°N, 84.5512°W)
Time: 19:20:01
(UTC-04:00)

Envisat - Visible Passes

Search period start: 20 March 2019 00:00
Search period end: 30 March 2019 00:00
Orbit: 764 x 766 km, 98.2° (Epoch: 20 March)

Date Brightness Start Highest point End Pass type
(mag) Time Alt. Az. Time Alt. Az. Time Alt. Az.
20 Mar 4.3 20:51:10 10° S 20:55:58 43° W 21:00:49 10° NNW visible
21 Mar 3.0 20:14:10 10° SSE 20:19:13 77° ENE 20:24:18 10° N visible
22 Mar 5.4 21:17:38 10° SSW 21:21:37 23° W 21:25:38 10° NW visible
23 Mar 3.7 20:39:46 10° S 20:44:44 57° W 20:49:44 10° NNW visible
24 Mar 6.0 21:45:22 10° WSW 21:47:21 12° W 21:49:21 10° WNW visible
25 Mar 5.0 21:05:56 10° SSW 21:10:21 30° W 21:14:47 10° NW visible
26 Mar 3.3 20:28:28 10° S 20:33:30 75° WSW 20:38:35 10° NNW visible
27 Mar 5.8 21:32:56 10° SW 21:36:02 16° W 21:39:09 10° NW visible
28 Mar 4.5 20:54:22 10° SSW 20:59:05 39° W 21:03:50 10° NNW visible
29 Mar 3.0 20:17:15 10° SSE 20:22:18 85° ENE 20:27:24 10° N visible
